Regional Weather Roundup
Issued by NWS

Home | Current Version | Previous Version | Graphics & Text | Print | Product List | Glossary On
Versions: 1 2 3 4 5 6 7 8 9 10 11 12 13 14 15 16 17 18 19 20 21 22 23 24 25 26 27 28 29 30 31 32 33 34 35 36 37 38 39 40 41 42 43 44 45 46 47 48 49 50
388
ASUS44 KLIX 031710
RWRLA
LOUISIANA WEATHER ROUNDUP
NATIONAL WEATHER SERVICE NEW ORLEANS LA
1100 AM CST TUE MAR 03 2015

NOTE: "FAIR" INDICATES FEW OR NO CLOUDS BELOW 12,000 FEET WITH NO
      SIGNIFICANT WEATHER AND/OR OBSTRUCTIONS TO VISIBILITY.
      SKY/WX - SKY CONDITION AND SIGNIFICANT WEATHER.
      TMP - AIR TEMPERATURE.    DP   - DEWPOINT TEMPERATURE.
      RH  - RELATIVE HUMIDITY.  PRES - PRESSURE.
      HX  - HEAT INDEX.         WCI  - WIND CHILL INDEX.

*  THESE STATIONS ARE NOT NWS OR FAA STATIONS AND ARE NOT UNDER
   NWS QUALITY CONTROL.

LAZ040-048-061>063-065-066-069-031800-
SOUTHEAST LOUISIANA

CITY           SKY/WX    TMP DP  RH WIND       PRES   REMARKS
N.O. AUDUBON   NOT AVBL
N.O. INTL ARPT PTSUNNY   76  67  73 S15       30.11F
N.O. LAKEFRONT CLOUDY    78  67  68 SE15      30.13S
SLIDELL        CLOUDY    75  68  78 SE14G21   30.12F
BATON ROUGE    PTSUNNY   75  68  78 SE10      30.09F
BOOTHVILLE     PTSUNNY   76  68  76 SE12      30.14F
BELLE CHASSE   CLOUDY    75  67  76 SE9       30.12S
BOGALUSA*        N/A     70  67  90 S5        30.15F
GALLIANO*      CLOUDY    78  69  73 MISG      30.12F
NEW ROADS*     CLOUDY    69  68  98 SE7       30.09F FOG
GONZALES*      CLOUDY    74  71  89 SE5       30.09F
HAMMOND*       NOT AVBL
HOUMA*         PTSUNNY   77  70  78 SE16      30.11F
PORT FOURCHON* SUNNY     73  68  83 SE10G16   30.15S

$$

LAZ041-044-053-054-031800-
SOUTHWEST LOUISIANA

CITY           SKY/WX    TMP DP  RH WIND       PRES   REMARKS
LAKE CHARLES   CLOUDY    68  67  96 S9        30.07S
LAFAYETTE      CLOUDY    70  68  93 S6        30.08F FOG
PATTERSON      CLOUDY    73  68  83 S12G17    30.09F
SALT POINT       N/A     71  68  90 SE9       30.08F
NEW IBERIA     CLOUDY    73  70  90 S17       30.08F
CHENAULT AIRPK NOT AVBL

$$

LAZ027-028-031800-
CENTRAL LOUISIANA

CITY           SKY/WX    TMP DP  RH WIND       PRES   REMARKS
FORT POLK      NOT AVBL
ALEXANDRIA INT CLOUDY    57  57 100 SE7       30.06F FOG
ALEXANDRIA     CLOUDY    59  57  93 CALM      30.07F

$$

LAZ001-002-031800-
NORTHWEST LOUISIANA

CITY           SKY/WX    TMP DP  RH WIND       PRES   REMARKS
SHREVEPORT     FOG       52  51  97 S5        30.04S VSB 1
BARKSDALE AFB  CLOUDY    50  50 100 S6        30.04F FOG
DTN SHREVEPORT CLOUDY    49  48  97 S3        30.04F FOG

$$

LAZ014-016-031800-
NORTHEAST LOUISIANA

CITY           SKY/WX    TMP DP  RH WIND       PRES   REMARKS
MONROE         FOG       52  52 100 CALM      30.08F VSB 1
TALLULAH       MOSUNNY   69  65  86 S9        30.07F

$$




USA.gov is the U.S. government's official web portal to all federal, state and local government web resources and services.